Flag for Ireland Weather past 2 weeks in Dublin, Ireland

Now
57 °F

Partly cloudy.


Feels Like: 57 °F
Forecast: 57 / 64 °F
Wind: 5 mph from Northeast

Location: Dublin Airport

Current Time: Sep 18, 2014 at 9:33:02 PM

Latest Report: Sep 18, 2014 at 9:00 PM


Visibility: 4 mi

Pressure: 29.86 "Hg

Humidity: 100%

Dew point: 57 °F

Location of DublinLocation

Historic Weather in Dublin — Graph

°F

Dublin temperature yesterday

Maximum temperature yesterday: 63 °F (at 2:30 PM)
Minimum temperature yesterday: 54 °F (at 12:30 AM)
Average temperature yesterday: 58 °F

Past Weeks' High & Low Weather Summary

 TemperatureHumidityPressure
High72 °F (Sep 4, 2:00 PM)100% (Sep 4, 12:30 AM)30.33 "Hg (Sep 4, 12:30 AM)
Low39 °F (Sep 8, 2:00 AM)55% (Sep 8, 2:00 PM)29.83 "Hg (Sep 18, 6:00 AM)
Average56 °F87%30.11 "Hg
* Reported Sep 3 8:00 PM — Sep 18 8:30 PM, Dublin, Weather by CustomWeather, © 2014

Note: Actual official high and low records may vary slightly from our data, if they occured in-between our weather recording intervals... More about our weather records

Advertising

Dublin weather history for previous 24 hours

 ConditionsComfort  
Time TempWeatherWind HumidityBarometerVisibility
8:30 PM
Sep 18
57 °FPartly sunny.7 mph94%29.86 "Hg4 mi
8:00 PM57 °FPartly sunny.8 mph94%29.86 "Hg4 mi
7:30 PM59 °FBroken clouds.6 mph88%29.86 "Hg4 mi
7:00 PM61 °FOvercast.8 mph83%29.83 "Hg5 mi
6:30 PM61 °FOvercast.9 mph83%29.86 "Hg6 mi
6:00 PM61 °FPartly sunny.9 mph83%29.83 "Hg6 mi
5:30 PM63 °FBroken clouds.10 mph77%29.83 "Hg6 mi
5:00 PM63 °FBroken clouds.10 mph77%29.83 "Hg6 mi
4:30 PM63 °FPartly sunny.10 mph77%29.83 "Hg6 mi
4:00 PM63 °FBroken clouds.12 mph83%29.83 "Hg6 mi
3:30 PM63 °FBroken clouds.12 mph77%29.83 "Hg6 mi
3:00 PM63 °FBroken clouds.12 mph77%29.83 "Hg6 mi
2:30 PM63 °FBroken clouds.12 mph83%29.83 "Hg6 mi
2:00 PM63 °FBroken clouds.13 mph83%29.86 "Hg6 mi
1:30 PM63 °FBroken clouds.13 mph83%29.86 "Hg5 mi
1:00 PM63 °FBroken clouds.14 mph83%29.86 "Hg5 mi
12:30 PM63 °FBroken clouds.13 mph88%29.86 "Hg5 mi
12:00 PM63 °FBroken clouds.10 mph88%29.86 "Hg5 mi
11:30 AM63 °FBroken clouds.10 mph88%29.86 "Hg5 mi
11:00 AM61 °FBroken clouds.13 mph94%29.86 "Hg5 mi
10:30 AM61 °FBroken clouds.12 mph94%29.86 "Hg4 mi
10:00 AM61 °FPartly sunny.10 mph94%29.86 "Hg4 mi
9:30 AM59 °FBroken clouds.10 mph100%29.86 "Hg4 mi
9:00 AM59 °FBroken clouds.9 mph94%29.86 "Hg4 mi
8:30 AM59 °FBroken clouds.10 mph94%29.86 "Hg4 mi
8:00 AM59 °FFog.10 mph94%29.86 "Hg2 mi
7:30 AM59 °FFog.9 mph94%29.86 "Hg2 mi
7:00 AM57 °FFog.9 mph100%29.86 "Hg2 mi
6:30 AM57 °FFog.10 mph100%29.83 "Hg2 mi
6:00 AM57 °FFog.10 mph100%29.83 "Hg2 mi
5:30 AM57 °FFog.10 mph100%29.86 "Hg2 mi
5:00 AM57 °FFog.8 mph100%29.86 "Hg2 mi
4:30 AM57 °FFog.7 mph100%29.86 "Hg2 mi
4:00 AM57 °FFog.8 mph100%29.86 "Hg2 mi
3:30 AM55 °FFog.8 mph100%29.86 "Hg2 mi
3:00 AM54 °FFog.7 mph100%29.86 "Hg2 mi
2:30 AM55 °FFog.7 mph94%29.86 "Hg3 mi
2:00 AM55 °FFog.8 mph94%29.89 "Hg3 mi
1:30 AM54 °FPassing clouds.9 mph100%29.89 "Hg4 mi
1:00 AM54 °FPassing clouds.9 mph100%29.89 "Hg4 mi
12:30 AM54 °FPassing clouds.9 mph100%29.89 "Hg4 mi
12:00 AM55 °FPassing clouds.6 mph94%29.89 "Hg4 mi
11:30 PM
Sep 17
55 °FPassing clouds.8 mph100%29.89 "Hg4 mi
11:00 PM55 °FPassing clouds.8 mph100%29.92 "Hg4 mi
10:30 PM57 °FPassing clouds.8 mph94%29.92 "Hg4 mi
10:00 PM57 °FPassing clouds.9 mph94%29.92 "Hg4 mi
9:30 PM55 °FPassing clouds.8 mph94%29.92 "Hg4 mi
9:00 PM55 °FPassing clouds.7 mph94%29.92 "Hg5 mi
Weather by CustomWeather, © 2014

See weather overviewHow to use our weather pages